Weather History for KPSM - December, 2012

Change the Weather History Date:

Saturday, December 8, 2012

  Actual Average Record
Temperature  
Mean Temperature 39 °F -  
Max Temperature 41 °F 39 °F 51 °F (1974)
Min Temperature 37 °F 25 °F 4 °F (1989)
Degree Days  
Heating Degree Days 26    
Moisture  
Dew Point 38 °F    
Average Humidity 99    
Maximum Humidity 100    
Minimum Humidity 93    
Precipitation  
Precipitation 0.15 in - - ()
Sea Level Pressure  
Sea Level Pressure 29.96 in    
Wind  
Wind Speed 2 mph (NW)    
Max Wind Speed 9 mph    
Max Gust Speed -    
Visibility 1 miles    
Events Fog , Rain    
Averages and records for this station are not official NWS values.
T = Trace of Precipitation, MM = Missing Value Source: NWS Daily Summary

Daily Weather History Graph

Daily Weather History Graph

Search for Another Location

Airport or City:

Trip Planner

Search our weather history database for the weather conditions in past years. The results will help you decide how hot, cold, wet, or windy it might be!

Date:

Astronomy

Dec. 08, 2012 Rise Set
Actual Time 7:02 AM EST 4:08 PM EST
Civil Twilight 6:30 AM EST 4:40 PM EST
Nautical Twilight 5:54 AM EST 5:16 PM EST
Astronomical Twilight 5:20 AM EST 5:50 PM EST
Moon 1:16 AM EST (12/8) 12:42 PM EST (12/8)
Length of Visible Light 10h 10m
Length of Day
9h 05m
Waning Crescent, 28% of the Moon is Illuminated
Dec 8
Waning Crescent
Dec 13
New
Dec 20
First Quarter
Dec 28
Full
Jan 4
Last Quarter

Hourly Weather History & Observations

Time (EST) Temp. Windchill Dew Point Humidity Pressure Visibility Wind Dir Wind Speed Gust Speed Precip Events Conditions
12:12 AM 39.2 °F - 39.2 °F 100% 30.03 in 3.0 mi Calm Calm - N/A   Overcast
12:23 AM 39.2 °F - 39.2 °F 100% 30.03 in 2.0 mi Calm Calm - N/A Rain Light Rain
12:39 AM 39.2 °F - 39.2 °F 100% 30.03 in 1.5 mi Calm Calm - N/A Rain Light Rain
12:55 AM 39.4 °F 37.2 °F 38.7 °F 97% 30.04 in 1.5 mi West 3.5 mph - 0.00 in   Light Drizzle
1:07 AM 39.2 °F - 39.2 °F 100% 30.04 in 1.0 mi Calm Calm - N/A   Light Drizzle
1:55 AM 38.7 °F - 38.1 °F 98% 30.02 in 1.2 mi Calm Calm - 0.00 in   Overcast
2:11 AM 39.2 °F - 37.4 °F 93% 30.03 in 1.5 mi Calm Calm - N/A   Overcast
2:45 AM 37.4 °F - 37.4 °F 100% 30.02 in 0.8 mi Calm Calm - N/A   Overcast
2:55 AM 37.8 °F - 37.6 °F 99% 30.02 in 0.5 mi Calm Calm - N/A Fog Fog
3:41 AM 37.4 °F - 37.4 °F 100% 30.01 in 0.5 mi Calm Calm - N/A Fog Fog
3:55 AM 37.4 °F - 37.0 °F 99% 30.01 in 0.5 mi Calm Calm - N/A Fog Fog
4:26 AM 37.4 °F - 37.4 °F 100% 30.01 in 0.2 mi Calm Calm - N/A Fog Fog
4:43 AM 37.4 °F - 37.4 °F 100% 30.01 in 0.1 mi Calm Calm - N/A Fog Fog
4:55 AM 37.6 °F - 37.4 °F 99% 30.01 in 0.2 mi Calm Calm - 0.00 in Fog , Rain Light Rain
5:18 AM 37.4 °F - 37.4 °F 100% 30.01 in 0.8 mi Calm Calm - N/A Rain Light Rain
5:55 AM 37.9 °F - 37.8 °F 99% 30.01 in 0.8 mi Calm Calm - 0.02 in Rain Light Rain
6:55 AM 38.5 °F 36.1 °F 38.3 °F 99% 30.01 in 0.8 mi North 3.5 mph - 0.02 in Rain Light Rain
7:41 AM 39.2 °F - 37.4 °F 93% 30.01 in 1.0 mi Calm Calm - N/A Rain Light Rain
7:55 AM 38.1 °F 34.6 °F 37.9 °F 99% 30.00 in 1.2 mi NNE 4.6 mph - 0.04 in Rain Light Rain
8:28 AM 39.2 °F 35.0 °F 37.4 °F 93% 29.99 in 1.5 mi NE 5.8 mph - N/A Rain Light Rain
8:55 AM 38.5 °F 33.4 °F 38.3 °F 99% 29.98 in 1.2 mi NNE 6.9 mph - 0.01 in   Light Drizzle
9:55 AM 38.3 °F 33.2 °F 38.1 °F 99% 29.99 in 1.0 mi North 6.9 mph - 0.01 in   Light Drizzle
10:55 AM 37.9 °F 31.5 °F 37.8 °F 99% 29.95 in 0.8 mi North 9.2 mph - 0.03 in Rain Light Rain
11:55 AM 38.3 °F 33.2 °F 38.1 °F 99% 29.92 in 1.0 mi NNW 6.9 mph - 0.01 in Rain Light Rain
12:55 PM 38.7 °F 32.9 °F 38.5 °F 99% 29.88 in 1.2 mi North 8.1 mph - 0.01 in   Light Drizzle
1:28 PM 39.2 °F 33.6 °F 39.2 °F 100% 29.87 in 1.5 mi NNW 8.1 mph - N/A   Overcast
1:55 PM 38.8 °F 33.2 °F 38.7 °F 99% 29.86 in 1.5 mi NNW 8.1 mph - 0.00 in   Overcast
2:55 PM 38.8 °F 35.4 °F 38.7 °F 99% 29.87 in 1.5 mi NNW 4.6 mph - N/A   Overcast
3:55 PM 38.5 °F 36.1 °F 38.3 °F 99% 29.89 in 1.5 mi WNW 3.5 mph - N/A   Overcast
4:55 PM 38.5 °F 35.0 °F 38.3 °F 99% 29.89 in 1.2 mi WNW 4.6 mph - N/A   Overcast
5:55 PM 38.3 °F 34.8 °F 38.1 °F 99% 29.89 in 1.5 mi NW 4.6 mph - N/A   Overcast
6:55 PM 38.3 °F - 38.1 °F 99% 29.89 in 2.0 mi Calm Calm - N/A   Overcast
7:26 PM 39.2 °F 37.0 °F 37.4 °F 93% 29.90 in 3.0 mi SW 3.5 mph - N/A   Overcast
7:55 PM 38.5 °F - 38.3 °F 99% 29.90 in 2.5 mi Calm Calm - N/A   Overcast
8:28 PM 39.2 °F 37.0 °F 39.2 °F 100% 29.91 in 2.5 mi SW 3.5 mph - N/A   Overcast
8:55 PM 39.0 °F - 38.8 °F 99% 29.90 in 2.5 mi Calm Calm - N/A   Overcast
9:55 PM 39.4 °F - 39.2 °F 99% 29.90 in 2.0 mi Calm Calm - N/A   Overcast
10:39 PM 39.2 °F 35.9 °F 39.2 °F 100% 29.91 in 1.2 mi WSW 4.6 mph - N/A   Overcast
10:55 PM 39.9 °F 36.7 °F 39.7 °F 99% 29.91 in 1.2 mi WSW 4.6 mph - N/A   Overcast
11:09 PM 39.2 °F 35.9 °F 39.2 °F 100% 29.91 in 0.8 mi West 4.6 mph - N/A   Overcast
11:31 PM 41.0 °F 35.8 °F 39.2 °F 93% 29.93 in 0.5 mi WSW 8.1 mph - N/A Fog Fog
11:55 PM 40.6 °F 36.0 °F 40.5 °F 99% 29.93 in 0.5 mi WSW 6.9 mph - N/A Fog Fog